Yatton Keynell, United Kingdom

4:06 PM GMT on March 23, 2019 (GMT +0000)
Yatton Keynell

Weather History for 03740 - June, 2008

Change the Weather History Date:

Friday, June 20, 2008

  Actual Average Record
Temperature  
Mean Temperature 56 °F -  
Max Temperature 63 °F 68 °F - ()
Min Temperature 49 °F 52 °F - ()
Degree Days  
Heating Degree Days 9    
Growing Degree Days 6 (Base 50)    
Moisture  
Dew Point 50 °F    
Average Humidity 84    
Maximum Humidity 100    
Minimum Humidity 54    
Precipitation  
Precipitation 0.02 in 0.07 in - ()
Sea Level Pressure  
Sea Level Pressure 30.05 in    
Wind  
Wind Speed 8 mph ()    
Max Wind Speed 15 mph    
Max Gust Speed -    
Visibility 7.6 miles    
Events Rain    
T = Trace of Precipitation, MM = Missing Value Source: Averaged Metar Reports

Daily Weather History Graph

Daily Weather History Graph

Search for Another Location

Airport or City:

Astronomy

Jun. 20, 2008 Rise Set
Actual Time 4:50 AM BST 9:28 PM BST
Civil Twilight 4:02 AM BST 10:16 PM BST
Nautical Twilight 2:48 AM BST 11:31 PM BST
Astronomical Twilight 1:41 AM BST 12:37 AM BST
Moon 11:08 PM BST (6/20) 5:53 AM BST (6/20)
Length of Visible Light 18h 13m
Length of Day
16h 38m
Full, 97% of the Moon is Illuminated
Jun 20
Full
Jun 26
Last Quarter
Jul 3
New
Jul 10
First Quarter
Jul 18
Full

Hourly Weather History & Observations

Time (BST) Temp. Dew Point Humidity Pressure Visibility Wind Dir Wind Speed Gust Speed Precip Events Conditions
12:50 AM 51 °F 48 °F 86% 30.01 in 22 mi SW 8.1 mph - -   Clear
12:50 AM 51.8 °F 48.2 °F 88% 29.98 in - SW 8.1 mph - N/A   Clear
1:50 AM 50.0 °F 48.2 °F 94% 29.98 in - SSW 6.9 mph - N/A   Clear
2:50 AM 50.0 °F 48.2 °F 94% 30.01 in - SSW 8.1 mph - N/A   Clear
3:50 AM 49 °F 49 °F 99% 30.02 in 12 mi South 4.6 mph - -   Mostly Cloudy
3:50 AM 50.0 °F 48.2 °F 94% 30.01 in - South 4.6 mph - N/A   Clear
4:50 AM 50.0 °F 50.0 °F 100% 30.01 in - SSW 6.9 mph - N/A   Clear
5:50 AM 51.8 °F 50.0 °F 94% 30.01 in - SSW 6.9 mph - N/A   Clear
6:50 AM 52 °F 50 °F 91% 30.04 in 12 mi SSW 6.9 mph - -   Scattered Clouds
6:50 AM 51.8 °F 50.0 °F 94% 30.01 in 6.2 mi SSW 6.9 mph - N/A   Mostly Cloudy
7:50 AM 53.6 °F 51.8 °F 94% 30.04 in 6.2 mi SSW 8.1 mph - N/A   Mostly Cloudy
8:50 AM 55.4 °F 51.8 °F 88% 30.04 in 6.2 mi SW 10.4 mph - N/A   Mostly Cloudy
9:50 AM 58 °F 52 °F 73% 30.06 in 22 mi SW 10.4 mph - -   Partly Cloudy
9:50 AM 59.0 °F 51.8 °F 77% 30.04 in 6.2 mi SW 10.4 mph - N/A   Mostly Cloudy
10:50 AM 60.8 °F 51.8 °F 72% 30.06 in 6.2 mi SW 12.7 mph - N/A   Mostly Cloudy
11:50 AM 60.8 °F 50.0 °F 68% 30.06 in 6.2 mi WSW 10.4 mph - N/A   Mostly Cloudy
12:50 PM 60 °F 49 °F 58% 30.07 in 25 mi WSW 10.4 mph - -   Overcast
12:50 PM 59.0 °F 48.2 °F 67% 30.06 in 6.2 mi WSW 10.4 mph - N/A   Mostly Cloudy
1:50 PM 60.8 °F 50.0 °F 68% 30.06 in 6.2 mi SSW 10.4 mph - N/A   Mostly Cloudy
2:50 PM 62.6 °F 50.0 °F 63% 30.06 in 6.2 mi SSW 9.2 mph - N/A   Mostly Cloudy
3:50 PM 62 °F 50 °F 54% 30.07 in 25 mi SW 11.5 mph - -   Mostly Cloudy
3:50 PM 62.6 °F 50.0 °F 63% 30.06 in 6.2 mi SW 11.5 mph - N/A   Mostly Cloudy
4:50 PM 57.2 °F 51.8 °F 82% 30.06 in 6.2 mi SW 15.0 mph - N/A Rain Light Rain
5:50 PM 57.2 °F 51.8 °F 82% 30.06 in 6.2 mi SSW 10.4 mph - N/A Rain Light Rain
6:50 PM 56 °F 52 °F 83% 30.09 in 19 mi SSW 8.1 mph - - Rain Light Rain
6:50 PM 57.2 °F 51.8 °F 82% 30.06 in 6.2 mi SSW 8.1 mph - N/A Rain Light Rain
7:50 PM 55.4 °F 53.6 °F 94% 30.06 in 6.2 mi SSW 6.9 mph - N/A Rain Light Rain
8:50 PM 53.6 °F 51.8 °F 94% 30.09 in 6.2 mi SSW 6.9 mph - N/A Rain Light Rain
9:50 PM 52 °F 50 °F 89% 30.11 in 12 mi SSW 8.1 mph - - Rain Light Rain
9:50 PM 51.8 °F 50.0 °F 94% 30.09 in 6.2 mi SSW 8.1 mph - N/A Rain Light Rain
10:50 PM 51.8 °F 51.8 °F 100% 30.09 in 6.2 mi South 6.9 mph - N/A Rain Light Rain
11:50 PM 51.8 °F 51.8 °F 100% 30.09 in 6.2 mi South 6.9 mph - N/A Rain Light Rain